Regional Weather Roundup
Issued by NWS

Home | Current Version | Previous Version | Graphics & Text | Print | Product List | Glossary On
Versions: 1 2 3 4 5 6 7 8 9 10 11 12 13 14 15 16 17 18 19 20 21 22 23 24 25 26 27 28 29 30 31 32 33 34 35 36 37 38 39 40 41 42 43 44 45 46 47 48 49 50
000
ASUS45 KABQ 211501
RWRNM
NEW MEXICO REGIONAL WEATHER ROUNDUP
NATIONAL WEATHER SERVICE ALBUQUERQUE NM
900 AM MDT SAT OCT 21 2017

NOTE: "FAIR" MEANS FEW OR NO CLOUDS BELOW 12,000 FEET AGL WITH NO
       SIGNIFICANT WEATHER OR OBSTRUCTIONS TO VISION.

      THIS PRODUCT IS RELEASED AS TWO VERSIONS.  ONE VERSION NEAR
      THE TOP OF THE HOUR CONTAINING PRELIMINARY DATA FROM ALBUQUERQUE
      AND OTHER STATIONS.  A FINAL VERSION WITH ADDITIONAL DATA IS
      ISSUED ABOUT 10 MINUTES AFTER THE HOUR.

NMZ501-503-504-510>518-211600-
NORTHWEST PLATEAU/NORTHCENTRAL MOUNTAINS

CITY           SKY/WX    TMP DP  RH WIND       PRES   REMARKS
FARMINGTON     FAIR      44  15  31 W8        30.05R
LOS ALAMOS     CLOUDY    51  29  42 NE3       30.04R
SANTA FE       PTSUNNY   52  37  56 NW8       30.01R
TAOS           FAIR      51  25  36 NW9       30.06R
ANGEL FIRE     FAIR      44  25  46 W7G21     30.06R

$$
NMZ402-403-502-505>509-211600-
WESTCENTRAL MOUNTAINS/SOUTHWEST MOUNTAINS

CITY           SKY/WX    TMP DP  RH WIND       PRES   REMARKS
GALLUP         PTSUNNY   47  35  63 NW9       30.10R
GRANTS         FAIR      51  37  58 NW20G29   30.09R
SILVER CITY    FAIR      58  39  49 NW17      30.05R

$$
NMZ407-409-411-412-211600-
SOUTHERN DESERTS

CITY           SKY/WX    TMP DP  RH WIND       PRES   REMARKS
DEMING         FAIR      62  44  51 W10       30.01R
LAS CRUCES     FAIR      64  44  48 W10       30.03R
HOLLOMAN AFB   FAIR      69  47  45 SW16      29.98R
ALAMOGORDO     FAIR      66  46  48 S9G17     29.99R
T OR C         FAIR      64  42  44 NW6       30.00R

$$
NMZ519>523-211600-
CENTRAL VALLEYS/CENTRAL HIGHLANDS

CITY           SKY/WX    TMP DP  RH WIND       PRES   REMARKS
ALBUQUERQUE    FAIR      57  36  45 W15G23    30.01R
DOUBLE EAGLE   PTSUNNY   55  36  47 W12       30.03R
MORIARTY ARPT  FAIR      57  35  44 W12G20    30.03R
CLINES CORNERS NOT AVBL
BELEN          PTSUNNY   59  33  37 W13       30.02R
SOCORRO        FAIR      58  38  47 N12       30.02R

$$
NMZ524>526-539-540-211600-
SOUTHCENTRAL MOUNTAINS

CITY           SKY/WX    TMP DP  RH WIND       PRES   REMARKS
RUIDOSO        FAIR      57  39  51 W17       30.06R

$$
NMZ527>531-211600-
NORTHEAST HIGHLANDS/NORTHEAST PLAINS

CITY           SKY/WX    TMP DP  RH WIND       PRES   REMARKS
LAS VEGAS      FAIR      54  31  41 NW8       29.98R
RATON          FAIR      57  26  30 CALM      29.91R
CLAYTON        FAIR      53  37  54 W9        29.86R

$$
NMZ532>537-211600-
EASTCENTRAL PLAINS

CITY           SKY/WX    TMP DP  RH WIND       PRES   REMARKS
SANTA ROSA     FAIR      62  34  35 W10       29.93R
TUCUMCARI      FAIR      62  46  55 W7        29.85R
CANNON AFB     FAIR      62  58  87 SW13      29.92R
CLOVIS AIRPORT FAIR      62  51  67 W14       29.91R

$$
NMZ028-029-538-211600-
SOUTHEAST PLAINS

CITY           SKY/WX    TMP DP  RH WIND       PRES   REMARKS
ROSWELL        FAIR      61  53  75 NW5       29.91R
ARTESIA        FAIR      66  50  55 S8        29.92R
CARLSBAD       FAIR      72  52  49 S5        29.91R
HOBBS          SUNNY     61  57  88 S9        29.92R


$$




USA.gov is the U.S. government's official web portal to all federal, state and local government web resources and services.